Regional Weather Roundup
Issued by NWS

Home | Current Version | Previous Version | Graphics & Text | Print | Product List | Glossary Off
Versions: 1 2 3 4 5 6 7 8 9 10 11 12 13 14 15 16 17 18 19 20 21 22 23 24 25 26 27 28 29 30 31 32 33 34 35 36 37 38 39 40 41 42 43 44 45 46 47 48 49 50

000
ASUS43 KTOP 240859
RWRKS

WEATHER ROUNDUP FOR KANSAS
NATIONAL WEATHER SERVICE GOODLAND KS
400 AM CDT SAT JUN 24 2017

NOTE:  "FAIR" INDICATES FEW OR NO CLOUDS BELOW 12,000 FEET WITH NO
SIGNIFICANT WEATHER AND/OR OBSTRUCTIONS TO VISIBILITY.

KSZ001>006-013>018-027>032-041>047-241000-
NORTHWEST KANSAS

CITY           SKY/WX    TMP DP  RH WIND       PRES   REMARKS
GOODLAND       CLEAR     54  49  83 CALM      30.25F
HAYS           CLOUDY    58  51  78 NE8       30.19F
HILL CITY      CLEAR     52  48  86 N5        30.22S
RUSSELL        CLEAR     61  49  64 NE5       30.17F
$$

KSZ061>065-074>080-084>089-241000-
SOUTHWEST KANSAS

CITY           SKY/WX    TMP DP  RH WIND       PRES   REMARKS
DODGE CITY     PTCLDY    63  55  75 NW3       30.19F
ELKHART          N/A     62  44  51 N2          N/A
GARDEN CITY    CLEAR     57  52  83 W6        30.20F
GREAT BEND     CLOUDY    61  52  72 NE6       30.17F
LIBERAL        MOCLDY    61  54  77 N5        30.22F
$$

KSZ066>073-081>083-090>101-241000-
SOUTHEAST KANSAS

CITY           SKY/WX    TMP DP  RH WIND       PRES   REMARKS
CHANUTE        MOCLDY    62  56  80 N5        30.12S
COFFEYVILLE    CLEAR     62  56  80 N5        30.11R
HUTCHINSON     CLEAR     63  50  62 NE9       30.15F
MEDICINE LODGE   N/A     62  53  72 N5        30.14F
NEWTON         CLEAR     61  51  70 NE8       30.16F
PARSONS        CLEAR     63  55  75 N3        30.12S
WICHITA INTL   CLOUDY    66  55  67 N7        30.14S
WICHITA JABRA  CLEAR     59  54  83 N8        30.14F
WINFIELD       PTCLDY    69  56  62 NE6       30.13F
$$

KSZ007>012-019>026-033>040-048>060-102>105-241000-
NORTHEAST KANSAS

CITY           SKY/WX    TMP DP  RH WIND       PRES   REMARKS
CONCORDIA      CLEAR     54  50  86 NW7       30.18R
EMPORIA        PTCLDY    58  55  90 NW3       30.14F
LAWRENCE       PTCLDY    56  55  97 W5        30.13S
MANHATTAN      CLEAR     55  51  86 CALM      30.15S
OLATHE IND     CLEAR     59  54  83 NW6       30.13R
OLATHE EXE     CLEAR     62  53  72 NW6       30.12R
SALINA         CLEAR     58  50  75 S3        30.17S
TOPEKA BILLARD CLEAR     58  58 100 CALM      30.13S
TOPEKA FORBES  CLEAR     58  54  86 CALM      30.13F
$$




USA.gov is the U.S. government's official web portal to all federal, state and local government web resources and services.